This is the latest recevied weather packets stored in our database for station/object E20ZNR-1. If no packets are shown the sender has not sent any weather packets the latest 10 day(s).
| Time | Temp. | Humidity | Pressure | Rain* | Wind** | Luminosity | Snow |
|---|---|---|---|---|---|---|---|
| 1778117821 | 44.44° C | 40% | 1006 hPa | - | - | 0 W/m² | - |
| 1778116895 | 45° C | 39% | 1006 hPa | - | - | 0 W/m² | - |
| 1778115970 | 43.33° C | 43% | 1006 hPa | - | - | 0 W/m² | - |
| 1778115044 | 41.11° C | 55% | 1006 hPa | - | - | 0 W/m² | - |
| 1778114120 | 38.33° C | 58% | 1006 hPa | - | - | 0 W/m² | - |
| 1778113194 | 34.44° C | 80% | 1005 hPa | - | - | 0 W/m² | - |
| 1778112269 | 34.44° C | 92% | 1005 hPa | - | - | 0 W/m² | - |
| 1778111344 | 30.56° C | 98% | 1005 hPa | - | - | 0 W/m² | - |
| 1778110419 | 31.67° C | 99% | 1005 hPa | - | - | 0 W/m² | - |
| 1778109494 | 28.33° C | 99% | 1005 hPa | - | - | 0 W/m² | - |
| 1778108570 | 27.22° C | 99% | 1005 hPa | - | - | 0 W/m² | - |
| 1778107644 | 27.22° C | 99% | 1005 hPa | - | - | 0 W/m² | - |
| 1778106719 | 27.22° C | 99% | 1004 hPa | - | - | 0 W/m² | - |
| 1778105794 | 27.22° C | 99% | 1004 hPa | - | - | 0 W/m² | - |
| 1778104869 | 27.22° C | 99% | 1004 hPa | - | - | 0 W/m² | - |
| 1778103944 | 27.22° C | 99% | 1004 hPa | - | - | 0 W/m² | - |
| 1778103019 | 27.22° C | 99% | 1004 hPa | - | - | 0 W/m² | - |
| 1778102094 | 27.78° C | 99% | 1004 hPa | - | - | 0 W/m² | - |
| 1778101169 | 27.78° C | 99% | 1004 hPa | - | - | 0 W/m² | - |
| 1778100244 | 27.78° C | 99% | 1004 hPa | - | - | 0 W/m² | - |
| 1778099320 | 27.78° C | 99% | 1004 hPa | - | - | 0 W/m² | - |
| 1778098395 | 27.78° C | 99% | 1003 hPa | - | - | 0 W/m² | - |
| 1778097470 | 27.78° C | 99% | 1003 hPa | - | - | 0 W/m² | - |
| 1778096545 | 27.78° C | 99% | 1003 hPa | - | - | 0 W/m² | - |
| 1778095620 | 28.33° C | 99% | 1004 hPa | - | - | 0 W/m² | - |
* Rain since midnight (hover to see other rain measurements)
** Current wind speed in m/s (hover to see current wind gust speed)